[[{"header":{"parameterUnit":"m.s-1","parameterCategory":1,"la1":30.2991,"la2":30.254,"lo1":-89.0895,"lo2":-89.0444,"dy":0.0017,"dx":0.0017,"nx":28,"ny":28,"refTime":"2024-08-26T09:00:00:Z","depth":0,"parameterNumber":2,"parameterNumberName":"U-component_of_WINDS"},"data":[0,0,0,0,0,0,0,0,0,0,0,0,0,0,0,0,0,0,0,0,0,0,0,0,0,0,0,0,0,0,0,0,0,0,0,0,0,0,0,0,0,0,0,0,0,0,0,0,0,0,0,0,0,0,0,0,0,0,0.431,0.431,0,0.4293,0.4293,0.4293,0.4302,0.4302,0.4303,0.4303,0.4283,0.4282,0.4281,0,0,0,0,0,0,0,0,0,0,0,0,0,0.4349,0.4349,0.431,0.431,0.431,0.4293,0.4293,0.4293,0.4302,0.4302,0.4303,0.4303,0.4283,0.4282,0.4281,0,0,0,0,0,0,0,0,0,0,0,0,0,0.4332,0.4348,0.431,0.4312,0.4312,0.4293,0.4293,0.4293,0.4301,0.4302,0.4303,0.4303,0.4284,0.4282,0.4281,0.4258,0,0,0.4277,0.4276,0,0,0,0,0,0,0,0,0.4333,0.4331,0.4312,0.4312,0.4312,0.43,0.4299,0.4281,0.4301,0.4305,0.4303,0.4304,0.4288,0.4286,0.4282,0.4257,0.4256,0.4276,0.4276,0.4275,0.4275,0,0,0,0,0,0,0,0.4334,0.4332,0.4303,0.4312,0.4312,0.4314,0.4312,0.4296,0.4293,0.4305,0.4306,0.4304,0.4288,0.4283,0.4281,0.4256,0.4276,0.4275,0.4274,0.4274,0.4213,0.4212,0,0,0,0,0,0,0.4336,0.4332,0.4304,0.4303,0.4325,0.4312,0.4311,0.4303,0.4293,0.4292,0.4303,0.4304,0.4285,0.4283,0.428,0.4253,0.4275,0.4274,0.4273,0.4214,0.4213,0.4212,0,0,0,0,0,0,0.4336,0.4333,0.4305,0.4318,0.4314,0.4311,0.4303,0.4303,0.4297,0.4292,0.4291,0.4298,0.4285,0.4282,0.4264,0.4252,0.4273,0.4272,0.4215,0.4213,0.4212,0.4198,0,0,0,0,0,0,0.4338,0.4333,0.4325,0.4318,0.4314,0.4289,0.4302,0.4302,0.4295,0.4296,0.4287,0.4286,0.4286,0.4266,0.4263,0.4251,0.4271,0.4216,0.4214,0.4213,0.42,0.4197,0.4194,0,0,0,0,0,0.4339,0.4321,0.4324,0.4321,0.4303,0.4288,0.4286,0.4286,0.4294,0.4285,0.4282,0.4286,0.4255,0.4264,0.426,0.4248,0.4216,0.4214,0.4213,0.4201,0.4197,0.4194,0,0,0,0,0,0,0.4325,0.432,0.4323,0.4303,0.4296,0.4289,0.4278,0.4282,0.4272,0.4274,0.4274,0.4272,0.4253,0.4249,0.4259,0.4226,0.4237,0.4234,0.4229,0.4225,0.4223,0.4223,0.4269,0,0,0,0,0,0.432,0.4309,0.4304,0.4286,0.4283,0.4281,0.4275,0.4276,0.4269,0.4265,0.4261,0.4253,0.4241,0.4233,0.4222,0.42,0.4198,0.419,0.4187,0.4185,0.4182,0.417,0.4166,0.4206,0.4206,0.4207,0,0,0.4308,0.4304,0.4297,0.4283,0.4278,0.4266,0.4279,0.4265,0.4256,0.4263,0.4245,0.4242,0.4233,0.4213,0.4203,0.4209,0.4171,0.4183,0.4181,0.4179,0.4168,0.4164,0.416,0.4205,0.4206,0.4206,0,0,0.4281,0.4277,0.4261,0.4257,0.4249,0.4249,0.4245,0.4239,0.4237,0.4219,0.4225,0.4214,0.4194,0.4188,0.4182,0.4155,0.4158,0.4151,0.4136,0.4124,0.4121,0.4118,0.4108,0.4104,0.4149,0.4149,0.4149,0,0.4267,0.4249,0.4253,0.4239,0.4233,0.4241,0.4225,0.422,0.4209,0.4205,0.4211,0.4187,0.4182,0.416,0.4153,0.4149,0.4144,0.4151,0.4122,0.4119,0.4116,0.4106,0.4102,0.4148,0.4148,0.4148,0.4148,0,0.4233,0.4221,0.4209,0.42,0.4193,0.4178,0.4179,0.4171,0.4174,0.4173,0.4155,0.415,0.4138,0.4133,0.4135,0.4112,0.4115,0.4122,0.4132,0.4111,0.4102,0.4098,0.4146,0.4147,0.4147,0.4147,0,0,0.4193,0.4188,0.4183,0.4179,0.4173,0.4163,0.415,0.4139,0.4132,0.4125,0.4113,0.4097,0.4104,0.4097,0.4099,0.4089,0.4067,0.4097,0.4096,0.409,0.4041,0.4035,0.403,0.407,0.407,0.4069,0.4041,0,0.4165,0.4141,0.4145,0.4121,0.411,0.4119,0.4107,0.4101,0.41,0.409,0.4089,0.4078,0.4087,0.4084,0.4074,0.4072,0.4057,0.4074,0.4058,0.4058,0.4059,0.4026,0.4019,0.3993,0.4038,0.4037,0.4037,0,0.4128,0.4121,0.4097,0.4093,0.4088,0.4077,0.4069,0.406,0.4054,0.4054,0.4048,0.4052,0.4038,0.405,0.4031,0.4043,0.4037,0.4035,0.4034,0.4031,0.4045,0.4021,0.3985,0.398,0.4031,0.4032,0.4032,0,0.41,0.4085,0.4069,0.4065,0.4061,0.4053,0.4051,0.4046,0.404,0.4032,0.4028,0.4019,0.4013,0.4006,0.4007,0.4017,0.3988,0.4,0.3986,0.3986,0.3978,0.3978,0.3939,0.3977,0.3977,0.3977,0.3977,0,0.4067,0.4052,0.4057,0.4046,0.403,0.4034,0.4018,0.4016,0.4012,0.4002,0.4009,0.3999,0.4002,0.3992,0.3993,0.3977,0.3975,0.3974,0.3974,0.3972,0.3972,0.3967,0.3968,0.3976,0.3976,0.3976,0.3977,0,0.4033,0.4035,0.4018,0.4016,0.4016,0.4003,0.4001,0.3992,0.3992,0.3979,0.3976,0.3977,0.3966,0.3967,0.3954,0.3955,0.3935,0.3938,0.3936,0.3937,0.3922,0.3923,0.3877,0.3871,0.3914,0.3914,0.3913,0,0.401,0.3999,0.3997,0.3991,0.3988,0.3978,0.3972,0.3977,0.3971,0.3965,0.3956,0.3946,0.3938,0.392,0.3919,0.3909,0.3911,0.3896,0.391,0.3908,0.391,0.391,0.3908,0.3892,0.3892,0.3891,0.3891,0,0.397,0.3973,0.3965,0.3957,0.3951,0.3945,0.3939,0.3934,0.3939,0.3931,0.3921,0.3914,0.3903,0.3892,0.3884,0.3881,0.3886,0.3887,0.3883,0.3881,0.388,0.3879,0.3927,0.3888,0.3888,0.3888,0.3889,0.3889,0.394,0.3931,0.3928,0.3919,0.3916,0.3912,0.3903,0.3903,0.3894,0.3885,0.3889,0.3877,0.3873,0.3862,0.3859,0.3849,0.3855,0.3849,0.3848,0.3846,0.3844,0.3883,0.3848,0.3848,0.3848,0.3848,0.3848,0,0.39,0.3899,0.3891,0.3884,0.3877,0.3885,0.388,0.3873,0.3863,0.3859,0.3852,0.384,0.383,0.383,0.3821,0.3813,0.3816,0.3811,0.381,0.3809,0.384,0.3844,0.3809,0.3809,0.3809,0.3809,0.3809,0.3809,0.3877,0.3862,0.3864,0.3848,0.3847,0.3836,0.3832,0.3828,0.3825,0.3812,0.3805,0.3805,0.3802,0.3794,0.3785,0.3785,0.3781,0.3775,0.3776,0.3803,0.3807,0.3811,0.3814,0.3774,0.3774,0.3746,0.3746,0.3746]},{"header":{"parameterUnit":"m.s-1","parameterCategory":1,"la1":30.2991,"la2":30.254,"lo1":-89.0895,"lo2":-89.0444,"dy":0.0017,"dx":0.0017,"nx":28,"ny":28,"refTime":"2024-08-26T09:00:00:Z","depth":0,"parameterNumber":3,"parameterNumberName":"V-component_of_WINDS"},"data":[0,0,0,0,0,0,0,0,0,0,0,0,0,0,0,0,0,0,0,0,0,0,0,0,0,0,0,0,0,0,0,0,0,0,0,0,0,0,0,0,0,0,0,0,0,0,0,0,0,0,0,0,0,0,0,0,0,0,-2.3508,-2.3509,0,-2.36,-2.3601,-2.3602,-2.3602,-2.36,-2.3599,-2.3598,-2.369,-2.3693,-2.3697,0,0,0,0,0,0,0,0,0,0,0,0,0,-2.3328,-2.3332,-2.3508,-2.3509,-2.351,-2.36,-2.3601,-2.3602,-2.3602,-2.36,-2.3599,-2.3597,-2.3689,-2.3693,-2.3697,0,0,0,0,0,0,0,0,0,0,0,0,0,-2.3412,-2.3333,-2.3507,-2.3521,-2.3523,-2.36,-2.3601,-2.3603,-2.3602,-2.36,-2.3598,-2.3597,-2.3687,-2.3693,-2.3698,-2.3767,0,0,-2.3714,-2.3717,0,0,0,0,0,0,0,0,-2.3407,-2.3418,-2.3517,-2.352,-2.3522,-2.3588,-2.3572,-2.3658,-2.3603,-2.3572,-2.3598,-2.3596,-2.3657,-2.3665,-2.3686,-2.3772,-2.3775,-2.3715,-2.3718,-2.372,-2.3722,0,0,0,0,0,0,0,-2.3401,-2.3414,-2.3544,-2.3519,-2.3522,-2.3521,-2.3531,-2.3588,-2.3623,-2.3574,-2.3575,-2.3586,-2.3658,-2.3681,-2.3688,-2.3777,-2.3715,-2.3719,-2.3723,-2.3725,-2.3923,-2.3925,0,0,0,0,0,0,-2.3393,-2.341,-2.3541,-2.3547,-2.3459,-2.3526,-2.3537,-2.3568,-2.3623,-2.3629,-2.3587,-2.3585,-2.3673,-2.3682,-2.3691,-2.3776,-2.372,-2.3725,-2.3728,-2.3921,-2.3924,-2.3926,0,0,0,0,0,0,-2.3389,-2.3405,-2.3537,-2.3478,-2.3495,-2.3531,-2.3566,-2.3571,-2.3594,-2.3633,-2.3639,-2.3604,-2.3672,-2.3684,-2.3748,-2.3779,-2.3728,-2.3733,-2.3919,-2.3922,-2.3925,-2.3945,0,0,0,0,0,0,-2.3384,-2.3404,-2.3431,-2.3479,-2.3498,-2.3594,-2.3568,-2.3574,-2.3604,-2.3602,-2.365,-2.3656,-2.3671,-2.374,-2.3754,-2.3785,-2.3737,-2.3916,-2.392,-2.3924,-2.3942,-2.3949,-2.3954,0,0,0,0,0,-2.3378,-2.3432,-2.3432,-2.3448,-2.3533,-2.3596,-2.3606,-2.3623,-2.3606,-2.3633,-2.3658,-2.3655,-2.3774,-2.3747,-2.3762,-2.3796,-2.3914,-2.3919,-2.3923,-2.3939,-2.3947,-2.3954,0,0,0,0,0,0,-2.3386,-2.3439,-2.3439,-2.3511,-2.3549,-2.3595,-2.363,-2.3631,-2.3674,-2.3671,-2.3689,-2.37,-2.3764,-2.3787,-2.3756,-2.3865,-2.3842,-2.385,-2.3848,-2.3857,-2.3863,-2.3855,-2.3741,0,0,0,0,0,-2.3396,-2.3443,-2.3487,-2.3546,-2.3565,-2.3594,-2.3622,-2.3632,-2.3671,-2.3687,-2.3716,-2.3754,-2.38,-2.3829,-2.3874,-2.3945,-2.3955,-2.3976,-2.3982,-2.3987,-2.3993,-2.4032,-2.4042,-2.3941,-2.3941,-2.3941,0,0,-2.3418,-2.3453,-2.3481,-2.3549,-2.3579,-2.3626,-2.3608,-2.3659,-2.3693,-2.3694,-2.3757,-2.378,-2.3823,-2.3891,-2.3923,-2.3912,-2.4023,-2.3993,-2.3997,-2.4,-2.4038,-2.4047,-2.4056,-2.3944,-2.3944,-2.3943,0,0,-2.3481,-2.3512,-2.3565,-2.3596,-2.3643,-2.3662,-2.3674,-2.3721,-2.3736,-2.38,-2.3802,-2.3843,-2.3922,-2.3952,-2.3978,-2.4053,-2.4051,-2.4067,-2.4099,-2.4137,-2.4145,-2.4152,-2.4178,-2.4187,-2.4073,-2.4073,-2.4074,0,-2.3501,-2.3574,-2.3592,-2.3643,-2.3672,-2.3676,-2.3729,-2.3758,-2.3816,-2.3836,-2.3823,-2.3922,-2.3952,-2.4027,-2.4045,-2.4066,-2.4081,-2.4061,-2.4142,-2.4149,-2.4156,-2.4181,-2.4191,-2.4075,-2.4075,-2.4075,-2.4075,0,-2.3596,-2.3646,-2.3683,-2.374,-2.3774,-2.3825,-2.3851,-2.3882,-2.3889,-2.391,-2.3974,-2.401,-2.4061,-2.408,-2.4087,-2.4156,-2.4148,-2.4138,-2.4115,-2.4167,-2.4191,-2.4201,-2.4077,-2.4077,-2.4076,-2.4076,0,0,-2.3666,-2.3733,-2.3746,-2.3772,-2.3824,-2.3862,-2.3914,-2.3965,-2.3992,-2.4032,-2.4075,-2.4142,-2.4134,-2.4163,-2.4174,-2.4207,-2.4263,-2.4194,-2.4195,-2.4204,-2.4341,-2.4347,-2.4357,-2.4263,-2.4265,-2.4266,-2.4337,0,-2.3734,-2.3827,-2.3845,-2.3925,-2.3971,-2.3976,-2.4021,-2.4057,-2.4077,-2.4119,-2.4141,-2.4188,-2.4174,-2.4192,-2.4225,-2.4249,-2.4291,-2.4245,-2.4302,-2.4304,-2.429,-2.437,-2.4376,-2.4441,-2.4346,-2.4348,-2.4349,0,-2.3826,-2.3869,-2.3954,-2.4,-2.402,-2.406,-2.4108,-2.4148,-2.4189,-2.4201,-2.4234,-2.4241,-2.4294,-2.4269,-2.4342,-2.431,-2.4334,-2.435,-2.4353,-2.4358,-2.4329,-2.4376,-2.4462,-2.4472,-2.4364,-2.4363,-2.4362,0,-2.3867,-2.3947,-2.4008,-2.403,-2.4085,-2.4113,-2.4137,-2.4176,-2.4206,-2.4248,-2.4267,-2.4314,-2.434,-2.4376,-2.4395,-2.4375,-2.4466,-2.4442,-2.4477,-2.4477,-2.4495,-2.4494,-2.4586,-2.4513,-2.4513,-2.4512,-2.4512,0,-2.3941,-2.3993,-2.4027,-2.4065,-2.4123,-2.4143,-2.4199,-2.4222,-2.4257,-2.4299,-2.4306,-2.4344,-2.4368,-2.4409,-2.4425,-2.4482,-2.4494,-2.4505,-2.4508,-2.4504,-2.4502,-2.4519,-2.4515,-2.4515,-2.4514,-2.4514,-2.4513,0,-2.3997,-2.4022,-2.4089,-2.4136,-2.4149,-2.4189,-2.4229,-2.4265,-2.4286,-2.4338,-2.4351,-2.4384,-2.4433,-2.4456,-2.4517,-2.4527,-2.4593,-2.4593,-2.4579,-2.458,-2.4613,-2.4609,-2.4718,-2.4733,-2.4651,-2.4652,-2.4653,0,-2.4042,-2.4082,-2.4133,-2.4162,-2.4187,-2.4233,-2.4263,-2.4284,-2.4315,-2.4365,-2.4395,-2.4445,-2.4486,-2.4565,-2.4593,-2.4639,-2.4641,-2.4676,-2.4648,-2.4642,-2.464,-2.4637,-2.4641,-2.468,-2.4681,-2.4682,-2.4682,0,-2.4118,-2.4129,-2.4173,-2.4222,-2.4258,-2.4297,-2.4335,-2.4358,-2.4385,-2.442,-2.4471,-2.4503,-2.4566,-2.4615,-2.4663,-2.4687,-2.4689,-2.4691,-2.4702,-2.4697,-2.4687,-2.4692,-2.4592,-2.4688,-2.4688,-2.4687,-2.4687,-2.4687,-2.4169,-2.4205,-2.4247,-2.4295,-2.4327,-2.4362,-2.4398,-2.4424,-2.4467,-2.452,-2.453,-2.4584,-2.4624,-2.469,-2.4715,-2.4757,-2.4749,-2.4764,-2.4768,-2.4771,-2.4772,-2.4681,-2.4766,-2.4766,-2.4766,-2.4766,-2.4766,0,-2.4245,-2.4273,-2.4317,-2.4371,-2.4409,-2.4409,-2.4451,-2.4483,-2.4531,-2.4568,-2.4609,-2.4667,-2.4715,-2.4747,-2.4796,-2.4823,-2.4825,-2.4835,-2.4832,-2.4838,-2.4777,-2.4763,-2.4832,-2.4832,-2.4832,-2.4832,-2.4832,-2.4832,-2.4289,-2.4349,-2.4365,-2.444,-2.4467,-2.4521,-2.4545,-2.4578,-2.4607,-2.4673,-2.4713,-2.4734,-2.4769,-2.482,-2.4863,-2.4872,-2.4889,-2.4899,-2.4906,-2.4849,-2.4842,-2.4835,-2.4822,-2.4902,-2.4902,-2.4963,-2.4964,-2.4964]}]]